Location: Chervonnoye
(48.6000°N, 34.4000°E)
Time: 22:02:11
(UTC+00:00)

RS-44 - Pass Details

Date: 27 November 2022
Orbit: 1174 x 1511 km, 82.5° (Epoch: 01 February)

Event Time Altitude Azimuth Distance (km) Brightness Sun altitude
Rises 01:07:56 0° 168° (SSE) 4,270 ? -38.9°
Reaches altitude 10° 01:10:39 10° 164° (SSE) 3,348 ? -38.5°
Maximum altitude 01:18:21 54° 89° (E) 1,654 ? -37.2°
Drops below altitude 10° 01:26:38 10° 16° (NNE) 3,599 ? -35.9°
Sets 01:29:39 0° 13° (NNE) 4,613 ? -35.4°
